Flag for Bahrain Weather past 2 weeks in Riffa, Bahrain

Now
97 °F

Sunny.


Feels Like: 118 °F
Forecast: 92 / 105 °F
Wind: 10 mph from Southeast

Location: Bahrain International Airport

Current Time: Sep 4, 2015 at 11:50:13 AM

Latest Report: Sep 4, 2015 at 11:00 AM


Visibility: 3 mi

Pressure: 29.65 "Hg

Humidity: 60%

Dew point: 81 °F

Historic Weather in Riffa — Graph

°F

Riffa temperature yesterday

Maximum temperature yesterday: 102 °F (at 11:00 AM)
Minimum temperature yesterday: 93 °F (at 11:00 PM)
Average temperature yesterday: 97 °F

Past Weeks' High & Low Weather Summary

 TemperatureHumidityPressure
High109 °F (Aug 27, 1:00 PM)84% (Aug 24, 5:00 AM)29.68 "Hg (Aug 24, 5:00 AM)
Low90 °F (Aug 27, 3:30 AM)17% (Aug 24, 4:00 PM)29.47 "Hg (Aug 24, 2:00 AM)
Average97 °F58%29.56 "Hg
* Reported Aug 20 10:00 AM — Sep 4 10:00 AM, Riffa, Weather by CustomWeather, © 2015

Note: Actual official high and low records may vary slightly from our data, if they occured in-between our weather recording intervals... More about our weather records

Advertising

Riffa weather history for previous 24 hours

 ConditionsComfort  
Time TempWeatherWind HumidityBarometerVisibility
10:00 AM
Fri, Sep 4
95 °FDuststorm.13 mph63%29.68 "Hg3 mi
9:00 AM95 °FDuststorm.12 mph63%29.68 "Hg3 mi
8:00 AM93 °FDuststorm.9 mph71%29.65 "Hg3 mi
7:00 AM91 °FSunny.7 mph75%29.65 "Hg5 mi
6:00 AM90 °FSunny.5 mph71%29.62 "Hg10 mi
5:00 AM90 °FClear.2 mph71%29.59 "Hg10 mi
4:00 AM91 °FClear.2 mph63%29.59 "Hg10 mi
3:00 AM93 °FClear.2 mph59%29.59 "Hg10 mi
2:00 AM93 °FClear.2 mph63%29.56 "Hg10 mi
1:00 AM91 °FClear.3 mph67%29.56 "Hg10 mi
12:00 AM93 °FPassing clouds.5 mph63%29.56 "HgN/A
11:00 PM
Thu, Sep 3
93 °FPassing clouds.5 mph63%29.56 "HgN/A
10:00 PM95 °FClear.2 mph53%29.56 "Hg10 mi
9:00 PM95 °FPassing clouds.7 mph56%29.56 "HgN/A
8:00 PM95 °FClear.8 mph56%29.56 "Hg10 mi
7:00 PM95 °FClear.9 mph53%29.53 "Hg10 mi
6:00 PM97 °FClear.12 mph50%29.53 "Hg10 mi
5:00 PM99 °FSunny.15 mph42%29.53 "Hg10 mi
4:00 PM102 °FSunny.15 mph35%29.53 "Hg10 mi
3:00 PM100 °FSunny.17 mph40%29.53 "Hg10 mi
2:00 PM100 °FSunny.17 mph42%29.56 "Hg10 mi
1:00 PM102 °FSunny.16 mph40%29.56 "Hg5 mi
12:00 PM100 °FSunny.15 mph35%29.59 "Hg1 mi
11:00 AM102 °FSunny.13 mph26%29.59 "Hg1 mi
Weather by CustomWeather, © 2015

See weather overviewHow to use our weather pages